Regional Weather Roundup
Issued by NWS

Home | Current Version | Previous Version | Text Only | Print | Product List | Glossary Off
Versions: 1 2 3 4 5 6 7 8 9 10 11 12 13 14 15 16 17 18 19 20 21 22 23 24 25 26 27 28 29 30 31 32 33 34 35 36 37 38 39 40 41 42 43 44 45 46 47 48 49 50

000
ASUS43 KMKX 231511
RWRWI

WISCONSIN REGIONAL WEATHER ROUNDUP
NATIONAL WEATHER SERVICE MILWAUKEE/SULLIVAN WI
1000 AM CDT WED MAY 23 2018

NOTE: "FAIR" INDICATES FEW OR NO CLOUDS BELOW 12,000 FEET WITH NO
SIGNIFICANT WEATHER AND/OR OBSTRUCTIONS TO VISIBILITY.

WIZ001-002-006>008-014>016-023>028-231600-
NORTHWEST WISCONSIN

CITY           SKY/WX    TMP DP  RH WIND       PRES   REMARKS
SUPERIOR ARPT  FAIR      72  57  59 CALM      30.13S
ASHLAND        FAIR      74  57  55 S6        30.15F
HAYWARD        FAIR      71  57  61 S7        30.16F
SIREN          FAIR      74  57  56 SE6       30.13S
CUMBERLAND     PTSUNNY   68  59  73 SE7       30.15F
RICE LAKE      FAIR      70  56  62 SE9       30.16F
CHETEK         PTSUNNY   69  59  71 SE8       30.16S
LADYSMITH      FAIR      70  57  63 SE7       30.18F
EAU CLAIRE     PTSUNNY   67  59  75 E6        30.14F
MENOMONIE      PTSUNNY   69  59  71 E7        30.14F
NEW RICHMOND   FAIR      72  59  63 SE8       30.12S
OSCEOLA        FAIR      72  61  67 SE12      30.13F
$$

WIZ003>005-009-010-017-018-231600-
NORTH CENTRAL WISCONSIN

CITY           SKY/WX    TMP DP  RH WIND       PRES   REMARKS
MANITOWISH WTR FAIR      72  55  55 SW6       30.17F
ARBOR VITAE    FAIR      72  56  56 CALM      30.18F
WOODRUFF       FAIR      72  56  56 CALM      30.18F
RHINELANDER    FAIR      75  55  49 W5        30.19F
EAGLE RIVER    FAIR      72  51  47 W5        30.18S
LAND O LAKES   FAIR      74  51  44 NW5       30.20S
PHILLIPS       FAIR      68  58  70 S5        30.17F
TOMAHAWK       FAIR      71  56  59 CALM      30.18F
MEDFORD        FAIR      68  56  65 S3        30.18F
MERRILL        FAIR      71  59  65 CALM      30.19F
$$

WIZ029-030-035-036-043>047-231600-
CENTRAL WISCONSIN

CITY           SKY/WX    TMP DP  RH WIND       PRES   REMARKS
WAUSAU         FAIR      69  58  67 CALM      30.17F
MOSINEE        MOSUNNY   70  61  73 SW5       30.19F
MARSHFIELD     FAIR      67  59  75 SE3       30.17F
STEVENS POINT  FAIR      67  57  70 W3        30.19F
WAUPACA        FAIR      73  58  59 CALM      30.18F
WAUTOMA        NOT AVBL
WISC RAPIDS    FAIR      69  58  67 CALM      30.19F
CAMP DOUGLAS   PTSUNNY   64  64 100 SW3       30.18F
$$

WIZ011>013-019>022-031-037>040-048>050-231600-
NORTHEAST WISCONSIN

CITY           SKY/WX    TMP DP  RH WIND       PRES   REMARKS
ANTIGO         FAIR      70  55  59 CALM      30.19F
SHAWANO        FAIR      73  58  60 SW3       30.17S
OCONTO         FAIR      72  55  55 CALM      30.17S
STURGEON BAY   NOT AVBL
GREEN BAY      FAIR      73  61  65 W6        30.17S
MANITOWOC      FAIR      72  60  66 W7        30.18S
APPLETON       MOSUNNY   68  57  68 W6        30.18R
CLINTONVILLE   FAIR      72  57  60 NW3       30.18S
OSHKOSH        FAIR      69  60  73 W6        30.18F
$$

WIZ032>034-041-042-053>061-231600-
SOUTHWEST WISCONSIN

CITY           SKY/WX    TMP DP  RH WIND       PRES   REMARKS
LA CROSSE      CLOUDY    63  59  87 SE6       30.16F
SPARTA         FAIR      62  57  84 S5        30.18F
VIROQUA        PTSUNNY   66  63  90 S6        30.19F
BOSCOBEL       PTSUNNY   65  59  81 CALM      30.20S
PRAIRIE DU CHI CLOUDY    64  60  85 CALM      30.19S
PLATTEVILLE    CLOUDY    67  63  87 S6        30.21S
$$

WIZ056-057-062-063-064-067-068-231600-
SOUTH CENTRAL WISCONSIN

CITY           SKY/WX    TMP DP  RH WIND       PRES   REMARKS
REEDSBURG      FAIR      66  62  89 SW5       30.18F
BARABOO/DELLS  FAIR      68  59  72 SW3       30.19S
LONE ROCK      FAIR      65  61  87 CALM      30.20S
MINERAL POINT  FAIR      70  63  78 S6        30.21R
MADISON        PTSUNNY   68  60  75 SW5       30.19F
MIDDLETON      FAIR      70  60  70 SE3       30.20F
WATERTOWN      FAIR      66  62  86 W3        30.21S
MONROE         FAIR      68  59  73 SE3       30.21R
JANESVILLE     MOSUNNY   66  61  82 CALM      30.21S
$$

WIZ051-052-058>065-066-070>072-231600-
SOUTHEAST WISCONSIN

CITY           SKY/WX    TMP DP  RH WIND       PRES   REMARKS
MILWAUKEE      PTSUNNY   71  59  65 SW6       30.19F
WAUKESHA       SUNNY     68  55  64 CALM      30.21S
MILWAUKEE/TIMM SUNNY     70  55  60 SW3       30.20F
RACINE         FAIR      69  60  73 CALM      30.21F
BURLINGTON     FAIR      69  59  71 SW5       30.21S
KENOSHA        FAIR      68  59  73 CALM      30.21S
FOND DU LAC    FAIR      69  59  70 W3        30.19S
SHEBOYGAN      FAIR      74  55  51 SW7       30.18R
WEST BEND      FAIR      68  61  77 W5        30.19S
JUNEAU         FAIR      65  61  87 W6        30.21S
$$

LSZ147-162-231600-
LAKE SUPERIOR

STATION/POSITION TIME  TEMP    WIND        PRES    WAVE
                       AIR SEA DIR/SP/G            HT/PER
                 (UTC) (F)     (DEG/KT/KT) (MB)    (FT/S)
W MID LAKE BUOY  1450   42 36  290/  2/  2 1021.4R   0
DEVILS ISLAND    1500   59     240/ 13/ 16 1020.7F
SAXON HARBOR     1440   65      40/  2/  2 1020.3S
$$

LMZ867-665-643>646-231600-
LAKE MICHIGAN

STATION/POSITION TIME  TEMP    WIND        PRES    WAVE
                       AIR SEA DIR/SP/G            HT/PER
                 (UTC) (F)     (DEG/KT/KT) (MB)    (FT/S)
N MID LAKE BUOY  1450   40 38  170/  6/  6 1021.6F   1
NORTHPORT PIER   1440   52     340/  1/  2 1021.3S
KEWAUNEE LAKESHO 1442   59     140/  3/  5 1021.1R
SHEBOYGAN LAKESH 1500   47     150/  8/  8 1022.3R
PORT WASHINGTON  1440   58     170/  3/  6 1023.0S
ATWATER BUOY     1407   53 50  160/  6/  8 1022.4    0
MILWAUKEE LAKESH 1450   57     180/  3/  3   N/A
S MID LAKE BUOY  1450   41 39  180/  4/  4 1023.6S   0
KENOSHA   LAKESH 1500   62                 1022.7
$$

TC  - TEMPERATURE IN CELSIUS
VSB - VISIBILITY IN STATUTE MILES
WCI - WIND CHILL INDEX
HX  - HEAT INDEX





USA.gov is the U.S. government's official web portal to all federal, state and local government web resources and services.